Tracking 29892 objects as of 21-Nov-2024
HD Live streaming from Space Station
objects crossing your sky now

ARIANE 44L+3 DEB (SPELDA

Track ARIANE 44L+3 DEB (SPELDA now!
10-day predictions


NORAD ID: 23867
Int'l Code: 1996-030D
Perigee: 367.3 km
Apogee: 26,778.5 km
Inclination: 3.7 °
Period: 467.2 minutes
Semi major axis: 19943 km
RCS: 16.3562 m2 (large)
Launch date: May 16, 1996
Source: France (FR)
Launch site: FRENCH GUIANA (FRGUI)

Note: This is SATELLITE DEBRIS
Your satellite tracking list
Your tracking list is empty




NASA's NSSDC Master Catalog

Two Line Element Set (TLE):
1 23867U 96030D   24325.80642068  .00004403  00000-0  44993-2 0  9996
2 23867   3.7350 261.8995 6621362 107.3737 330.9123  3.08239555280887
Source of the keplerian elements: AFSPC